KB9ZI Weather Reports


Display with metric or nautical units.
time (UTC)temp
F
wind
direction
speed
MPH
gust
MPH
rain 1hr
in
rain 24hr
in
rain mn
in
humidity
%
barometer
mb
20220122045235 20 196 0.0 22.0 0.00 0.00 0.00 91 1017.0
20220122044734 20 194 0.0 18.0 0.00 0.00 0.00 91 1017.2
20220122044234 20 213 0.0 22.0 0.00 0.00 0.00 91 1017.2
20220122043733 20 212 0.0 22.0 0.00 0.00 0.00 91 1017.2
20220122043232 20 207 0.0 22.0 0.00 0.00 0.00 91 1017.2
20220122042732 19 188 0.0 20.0 0.00 0.00 0.00 91 1017.2
20220122042234 19 214 0.0 21.0 0.00 0.00 0.00 91 1017.4
20220122041727 19 178 0.0 23.0 0.00 0.00 0.00 91 1017.4
20220122041226 19 194 0.0 23.0 0.00 0.00 0.00 91 1017.3
20220122040725 19 218 0.0 19.0 0.00 0.00 0.00 91 1017.3
20220122040225 18 232 0.0 16.0 0.00 0.00 0.00 91 1017.4
20220122035731 18 223 0.0 16.0 0.00 0.00 0.00 91 1017.4
20220122035219 18 240 0.0 23.0 0.00 0.00 0.00 91 1017.4
20220122034719 18 171 0.0 23.0 0.00 0.00 0.00 91 1017.4
20220122034219 18 240 0.0 22.0 0.00 0.00 0.00 91 1017.4
20220122033715 17 209 0.0 22.0 0.00 0.00 0.00 91 1017.4
20220122033214 17 215 0.0 22.0 0.00 0.00 0.00 91 1017.4
20220122032713 17 174 0.0 26.0 0.00 0.00 0.00 90 1017.5
20220122032215 17 178 0.0 26.0 0.00 0.00 0.00 90 1017.5
20220122031712 17 194 0.0 21.0 0.00 0.00 0.00 90 1017.5
20220122031208 17 209 0.0 21.0 0.00 0.00 0.00 91 1017.5
20220122030707 16 234 0.0 21.0 0.00 0.00 0.00 90 1017.5
20220122030207 16 207 0.0 22.0 0.00 0.00 0.00 90 1017.6
20220122025707 16 220 0.0 22.0 0.00 0.00 0.00 90 1017.7
20220122025209 16 196 0.0 23.0 0.00 0.00 0.00 90 1017.7
20220122024706 16 213 0.0 23.0 0.00 0.00 0.00 90 1017.9
20220122024207 15 209 0.0 23.0 0.00 0.00 0.00 90 1018.0
20220122023709 15 173 0.0 22.0 0.00 0.00 0.00 90 1018.0
20220122023206 15 213 0.0 24.0 0.00 0.00 0.00 90 1017.9
20220122022707 15 232 0.0 25.0 0.00 0.00 0.00 90 1018.0
20220122022204 15 196 0.0 25.0 0.00 0.00 0.00 90 1018.1
20220122021709 15 165 0.0 22.0 0.00 0.00 0.00 89 1018.2
20220122021203 14 253 0.0 34.0 0.00 0.00 0.00 89 1018.2
20220122020702 14 184 0.0 34.0 0.00 0.00 0.00 89 1018.4
20220122020200 14 203 0.0 25.0 0.00 0.00 0.00 89 1018.5
20220122015701 14 188 0.0 26.0 0.00 0.00 0.00 89 1018.6
20220122015200 14 240 0.0 26.0 0.00 0.00 0.00 89 1018.8
20220122014654 13 213 0.0 20.0 0.00 0.00 0.00 89 1018.8
20220122014154 13 161 0.0 30.0 0.00 0.00 0.00 89 1018.8
20220122013655 13 172 0.0 30.0 0.00 0.00 0.00 89 1018.9
20220122013156 13 201 0.0 24.0 0.00 0.00 0.00 89 1018.9
20220122012654 13 181 0.0 24.0 0.00 0.00 0.00 89 1019.2
20220122012156 13 171 0.0 25.0 0.00 0.00 0.00 89 1019.2
20220122011655 13 218 0.0 30.0 0.00 0.00 0.00 89 1019.3
20220122011156 13 208 0.0 30.0 0.00 0.00 0.00 88 1019.3
20220122010654 13 189 0.0 23.0 0.00 0.00 0.00 88 1019.3
20220122010157 12 114 0.0 23.0 0.00 0.00 0.00 88 1019.5
20220122005655 12 171 0.0 24.0 0.00 0.00 0.00 88 1019.5
20220122005155 12 216 0.0 24.0 0.00 0.00 0.00 88 1019.5
20220122004656 12 178 0.0 21.0 0.00 0.00 0.00 88 1019.5
20220122004154 12 202 0.0 22.0 0.00 0.00 0.00 88 1019.5
20220122003656 12 216 0.0 22.0 0.00 0.00 0.00 88 1019.7
20220122003146 12 175 0.0 25.0 0.00 0.00 0.00 88 1019.6
20220122002646 12 198 0.0 30.0 0.00 0.00 0.00 88 1019.9
20220122002148 12 206 0.0 30.0 0.00 0.00 0.00 88 1020.0
20220122001642 12 206 0.0 20.0 0.00 0.00 0.00 88 1020.0
20220122001145 12 188 0.0 23.0 0.00 0.00 0.00 87 1019.9
20220122000643 12 208 0.0 23.0 0.00 0.00 0.00 87 1020.0
20220122000140 12 220 0.0 24.0 0.00 0.00 0.00 87 1020.1
20220121235641 12 221 0.0 24.0 0.00 0.00 0.00 86 1020.2
20220121235140 12 178 0.0 16.0 0.00 0.00 0.00 86 1020.1
20220121234640 12 197 0.0 22.0 0.00 0.00 0.00 85 1020.2
20220121234145 12 202 0.0 25.0 0.00 0.00 0.00 84 1020.1
20220121233636 12 189 0.0 25.0 0.00 0.00 0.00 82 1020.3
20220121233136 12 167 0.0 24.0 0.00 0.00 0.00 80 1020.4
20220121232633 13 156 0.0 28.0 0.00 0.00 0.00 78 1020.4
20220121232134 13 211 0.0 28.0 0.00 0.00 0.00 75 1020.4
20220121231633 14 188 0.0 19.0 0.00 0.00 0.00 72 1020.5
20220121231136 14 194 0.0 19.0 0.00 0.00 0.00 68 1020.5
20220121230632 15 200 0.0 19.0 0.00 0.00 0.00 65 1020.6
20220121230135 15 171 0.0 18.0 0.00 0.00 0.00 62 1020.5
20220121225635 15 207 0.0 18.0 0.00 0.00 0.00 61 1020.6
20220121225133 15 193 0.0 19.0 0.00 0.00 0.00 61 1020.7
20220121224628 15 190 0.0 19.0 0.00 0.00 0.00 61 1020.6
20220121224128 15 254 0.0 16.0 0.00 0.00 0.00 60 1020.7
20220121223631 15 225 0.0 16.0 0.00 0.00 0.00 60 1020.6
20220121223122 15 180 0.0 23.0 0.00 0.00 0.00 59 1020.5
20220121222621 15 223 0.0 23.0 0.00 0.00 0.00 59 1020.5
20220121222121 15 182 0.0 23.0 0.00 0.00 0.00 60 1020.5
20220121221620 15 183 0.0 19.0 0.00 0.00 0.00 59 1020.5
20220121221112 15 193 0.0 19.0 0.00 0.00 0.00 58 1020.7
20220121220611 16 179 0.0 19.0 0.00 0.00 0.00 57 1020.8
20220121220107 16 156 0.0 19.0 0.00 0.00 0.00 57 1020.9
20220121215608 16 219 0.0 15.0 0.00 0.00 0.00 55 1020.8
20220121215108 16 157 0.0 15.0 0.00 0.00 0.00 54 1020.8
20220121214611 16 159 0.0 19.0 0.00 0.00 0.00 55 1020.7
20220121214107 16 211 0.0 19.0 0.00 0.00 0.00 54 1020.7
20220121213607 16 227 0.0 22.0 0.00 0.00 0.00 54 1020.5
20220121213108 15 209 0.0 23.0 0.00 0.00 0.00 54 1019.9
20220121212608 15 184 0.0 23.0 0.00 0.00 0.00 53 1019.9
20220121212104 15 196 0.0 22.0 0.00 0.00 0.00 53 1019.9
20220121211607 15 172 0.0 24.0 0.00 0.00 0.00 53 1020.0
20220121211104 15 163 0.0 26.0 0.00 0.00 0.00 52 1020.0
20220121210605 15 186 0.0 26.0 0.00 0.00 0.00 52 1020.0
20220121210103 15 111 0.0 26.0 0.00 0.00 0.00 52 1020.3
20220121205604 15 165 0.0 26.0 0.00 0.00 0.00 52 1020.6
20220121205109 15 167 0.0 25.0 0.00 0.00 0.00 52 1020.8
20220121204604 15 188 0.0 20.0 0.00 0.00 0.00 52 1020.8
20220121204103 15 205 0.0 21.0 0.00 0.00 0.00 52 1020.9
20220121203605 15 160 0.0 33.0 0.00 0.00 0.00 52 1020.8
20220121203103 15 175 0.0 33.0 0.00 0.00 0.00 50 1020.9
20220121202601 15 130 0.0 23.0 0.00 0.00 0.00 51 1020.8
20220121202102 15 215 0.0 22.0 0.00 0.00 0.00 51 1021.1
20220121201601 15 195 0.0 21.0 0.00 0.00 0.00 50 1021.4
20220121201101 15 164 0.0 23.0 0.00 0.00 0.00 51 1021.6
20220121200600 15 156 0.0 23.0 0.00 0.00 0.00 49 1021.7
20220121200101 15 182 0.0 22.0 0.00 0.00 0.00 50 1021.9
20220121195600 15 179 0.0 29.0 0.00 0.00 0.00 50 1022.0
20220121195101 15 195 0.0 29.0 0.00 0.00 0.00 48 1022.0
20220121194557 15 159 0.0 37.0 0.00 0.00 0.00 49 1021.8
20220121194057 15 150 0.0 37.0 0.00 0.00 0.00 49 1022.0
20220121193552 15 173 0.0 33.0 0.00 0.00 0.00 49 1022.3
20220121193051 15 146 0.0 24.0 0.00 0.00 0.00 50 1022.7
20220121192552 15 161 0.0 29.0 0.00 0.00 0.00 49 1022.9
20220121192053 15 237 0.0 29.0 0.00 0.00 0.00 49 1023.0
20220121191552 15 192 0.0 23.0 0.00 0.00 0.00 49 1023.1
20220121191051 15 187 0.0 23.0 0.00 0.00 0.00 49 1023.2
20220121190551 15 174 0.0 24.0 0.00 0.00 0.00 50 1023.3
20220121190052 14 190 0.0 24.0 0.00 0.00 0.00 51 1023.3
20220121185553 15 193 0.0 24.0 0.00 0.00 0.00 50 1023.3
20220121185049 14 203 0.0 24.0 0.00 0.00 0.00 50 1023.3
20220121184550 14 182 0.0 23.0 0.00 0.00 0.00 50 1023.4
20220121184053 14 188 0.0 34.0 0.00 0.00 0.00 51 1023.4
20220121183550 13 186 0.0 34.0 0.00 0.00 0.00 52 1023.6
20220121183051 13 155 0.0 29.0 0.00 0.00 0.00 53 1023.9
20220121182549 13 151 0.0 29.0 0.00 0.00 0.00 54 1024.0
20220121182050 13 170 0.0 30.0 0.00 0.00 0.00 52 1024.2
20220121181549 13 200 0.0 30.0 0.00 0.00 0.00 55 1024.2
20220121181049 13 210 0.0 30.0 0.00 0.00 0.00 54 1024.4
20220121180550 13 239 0.0 30.0 0.00 0.00 0.00 54 1024.5
20220121180050 12 178 0.0 25.0 0.00 0.00 0.00 56 1024.7
20220121175550 12 181 0.0 29.0 0.00 0.00 0.00 57 1025.1
20220121175049 11 173 0.0 29.0 0.00 0.00 0.00 57 1025.3
20220121174552 11 208 0.0 20.0 0.00 0.00 0.00 59 1025.5
20220121174049 11 196 0.0 20.0 0.00 0.00 0.00 60 1025.6
20220121173545 11 180 0.0 21.0 0.00 0.00 0.00 59 1025.7
20220121173045 11 174 0.0 23.0 0.00 0.00 0.00 59 1025.8
20220121172545 11 164 0.0 23.0 0.00 0.00 0.00 60 1025.9
20220121172048 10 209 0.0 23.0 0.00 0.00 0.00 60 1026.0
20220121171543 10 184 0.0 23.0 0.00 0.00 0.00 62 1026.0
20220121171043 9 178 0.0 23.0 0.00 0.00 0.00 62 1025.9
20220121170539 9 209 0.0 21.0 0.00 0.00 0.00 63 1026.0
20220121170039 9 173 0.0 21.0 0.00 0.00 0.00 65 1026.2
20220121165540 8 157 0.0 23.0 0.00 0.00 0.00 66 1026.3
20220121165039 7 200 0.0 23.0 0.00 0.00 0.00 66 1026.5
20220121164541 7 178 0.0 25.0 0.00 0.00 0.00 67 1026.4
20220121164039 7 192 0.0 25.0 0.00 0.00 0.00 67 1026.5
20220121163539 7 192 0.0 21.0 0.00 0.00 0.00 67 1026.7
20220121163038 6 150 0.0 26.0 0.00 0.00 0.00 69 1026.7
20220121162540 6 185 0.0 26.0 0.00 0.00 0.00 68 1026.6
20220121162039 5 222 0.0 26.0 0.00 0.00 0.00 69 1026.7
20220121161544 4 166 0.0 23.0 0.00 0.00 0.00 70 1026.8
20220121161033 4 198 0.0 23.0 0.00 0.00 0.00 71 1026.8
20220121160533 3 186 0.0 23.0 0.00 0.00 0.00 72 1026.9
20220121160035 3 162 0.0 21.0 0.00 0.00 0.00 73 1027.0
20220121155531 3 182 0.0 19.0 0.00 0.00 0.00 73 1027.0
20220121155033 2 177 0.0 26.0 0.00 0.00 0.00 74 1027.2
20220121154534 2 178 0.0 26.0 0.00 0.00 0.00 74 1027.2
20220121154030 2 155 0.0 23.0 0.00 0.00 0.00 74 1027.3
20220121153533 2 178 0.0 20.0 0.00 0.00 0.00 75 1027.4
20220121153031 1 184 0.0 25.0 0.00 0.00 0.00 75 1027.4
20220121152530 1 191 0.0 25.0 0.00 0.00 0.00 76 1027.5
20220121152031 0 180 0.0 23.0 0.00 0.00 0.00 76 1027.6
20220121151531 0 162 0.0 20.0 0.00 0.00 0.00 76 1027.6
20220121151033 0 197 0.0 18.0 0.00 0.00 0.00 76 1027.7
20220121150534 -1 198 0.0 20.0 0.00 0.00 0.00 76 1027.9
20220121150034 -1 190 0.0 20.0 0.00 0.00 0.00 76 1027.8
20220121145534 -1 195 0.0 22.0 0.00 0.00 0.00 76 1028.0
20220121145034 -2 163 0.0 22.0 0.00 0.00 0.00 76 1028.1
20220121144531 -2 175 0.0 18.0 0.00 0.00 0.00 76 1028.2
20220121144034 -2 209 0.0 20.0 0.00 0.00 0.00 76 1028.1
20220121143532 -3 199 0.0 20.0 0.00 0.00 0.00 76 1028.1
20220121143032 -3 193 0.0 20.0 0.00 0.00 0.00 76 1028.2
20220121142531 -3 159 0.0 22.0 0.00 0.00 0.00 76 1028.2
20220121142031 -4 170 0.0 22.0 0.00 0.00 0.00 76 1028.3
20220121141534 -4 169 0.0 18.0 0.00 0.00 0.00 76 1028.3
20220121141030 -4 178 0.0 18.0 0.00 0.00 0.00 76 1028.2
20220121140530 -4 165 0.0 20.0 0.00 0.00 0.00 76 1028.4
20220121140031 -5 188 0.0 20.0 0.00 0.00 0.00 76 1028.4
20220121135531 -5 184 0.0 20.0 0.00 0.00 0.00 76 1028.4
20220121135031 -5 167 0.0 18.0 0.00 0.00 0.00 76 1028.3
20220121134533 -5 188 0.0 15.0 0.00 0.00 0.00 76 1028.5
20220121134026 -5 228 0.0 15.0 0.00 0.00 0.00 76 1028.5
20220121133526 -5 179 0.0 13.0 0.00 0.00 0.00 76 1028.5
20220121133027 -5 159 0.0 12.0 0.00 0.00 0.00 76 1028.5
20220121132521 -6 157 0.0 13.0 0.00 0.00 0.00 76 1028.6
20220121132021 -6 178 0.0 13.0 0.00 0.00 0.00 77 1028.7
20220121131521 -6 160 0.0 11.0 0.00 0.00 0.00 77 1028.8
20220121131020 -6 160 0.0 10.0 0.00 0.00 0.00 77 1028.8
20220121130521 -6 165 0.0 12.0 0.00 0.00 0.00 77 1028.8
20220121130021 -6 166 0.0 12.0 0.00 0.00 0.00 77 1029.0
20220121125521 -6 173 0.0 12.0 0.00 0.00 0.00 77 1029.0
20220121125021 -7 183 0.0 12.0 0.00 0.00 0.00 78 1029.0
20220121124522 -7 165 0.0 9.0 0.00 0.00 0.00 78 1029.0
20220121124020 -7 163 0.0 9.0 0.00 0.00 0.00 78 1029.0
20220121123521 -7 163 0.0 11.0 0.00 0.00 0.00 78 1029.1
20220121123016 -7 186 0.0 11.0 0.00 0.00 0.00 78 1029.0
20220121122513 -7 157 0.0 8.0 0.00 0.00 0.00 78 1029.0
20220121122011 -7 192 0.0 10.0 0.00 0.00 0.00 79 1029.2
20220121121506 -7 167 0.0 10.0 0.00 0.00 0.00 78 1029.2
20220121121009 -7 186 0.0 10.0 0.00 0.00 0.00 78 1029.1
20220121120507 -7 175 0.0 10.0 0.00 0.00 0.00 78 1029.3
20220121120004 -7 176 0.0 10.0 0.00 0.00 0.00 78 1029.2
20220121115508 -8 155 0.0 9.0 0.00 0.00 0.00 78 1029.3
20220121115005 -8 189 0.0 9.0 0.00 0.00 0.00 78 1029.3
20220121114509 -8 160 0.0 10.0 0.00 0.00 0.00 78 1029.4
20220121114002 -8 192 0.0 10.0 0.00 0.00 0.00 78 1029.4
20220121113502 -8 193 0.0 8.0 0.00 0.00 0.00 78 1029.5
20220121113001 -8 138 0.0 9.0 0.00 0.00 0.00 78 1029.7
20220121112504 -8 182 0.0 9.0 0.00 0.00 0.00 78 1029.8
20220121112002 -8 176 0.0 9.0 0.00 0.00 0.00 78 1029.8
20220121111500 -8 182 0.0 9.0 0.00 0.00 0.00 78 1030.0
20220121111000 -8 146 0.0 9.0 0.00 0.00 0.00 78 1030.0
20220121110458 -8 157 0.0 9.0 0.00 0.00 0.00 78 1030.1
20220121105958 -8 169 0.0 9.0 0.00 0.00 0.00 78 1030.2
20220121105500 -8 168 0.0 10.0 0.00 0.00 0.00 78 1030.2
20220121104954 -8 165 0.0 10.0 0.00 0.00 0.00 78 1030.2
20220121104454 -8 184 0.0 9.0 0.00 0.00 0.00 78 1030.2
20220121103954 -8 171 0.0 9.0 0.00 0.00 0.00 78 1030.2
20220121103454 -8 179 0.0 10.0 0.00 0.00 0.00 78 1030.3
20220121103000 -8 129 0.0 10.0 0.00 0.00 0.00 79 1030.3
20220121102452 -7 130 0.0 8.0 0.00 0.00 0.00 79 1030.3
20220121101952 -8 196 0.0 8.0 0.00 0.00 0.00 79 1030.3
20220121101452 -8 163 0.0 9.0 0.00 0.00 0.00 79 1030.4
20220121100953 -8 162 0.0 9.0 0.00 0.00 0.00 79 1030.6
20220121100448 -8 171 0.0 9.0 0.00 0.00 0.00 79 1030.7
20220121095948 -8 175 0.0 10.0 0.00 0.00 0.00 79 1030.7
20220121095450 -8 179 0.0 10.0 0.00 0.00 0.00 79 1030.8
20220121094946 -8 179 0.0 8.0 0.00 0.00 0.00 79 1030.9
20220121094446 -8 182 0.0 8.0 0.00 0.00 0.00 79 1031.0
20220121093946 -8 180 0.0 7.0 0.00 0.00 0.00 79 1030.9
20220121093440 -8 162 0.0 8.0 0.00 0.00 0.00 79 1030.9
20220121092941 -7 161 0.0 8.0 0.00 0.00 0.00 79 1030.9
20220121092440 -8 173 0.0 9.0 0.00 0.00 0.00 79 1030.9
20220121091938 -7 146 0.0 9.0 0.00 0.00 0.00 80 1030.9
20220121091438 -7 168 0.0 10.0 0.00 0.00 0.00 80 1031.0
20220121090938 -7 138 0.0 11.0 0.00 0.00 0.00 80 1031.0
20220121090436 -7 198 0.0 11.0 0.00 0.00 0.00 80 1031.1
20220121085935 -8 138 0.0 11.0 0.00 0.00 0.00 81 1031.1
20220121085432 -8 143 0.0 11.0 0.00 0.00 0.00 81 1031.2
20220121084934 -8 145 0.0 9.0 0.00 0.00 0.00 81 1031.3
20220121084435 -8 146 0.0 9.0 0.00 0.00 0.00 81 1031.3
20220121083933 -9 173 0.0 8.0 0.00 0.00 0.00 81 1031.4
20220121083433 -9 155 0.0 7.0 0.00 0.00 0.00 81 1031.5
20220121082930 -9 159 0.0 6.0 0.00 0.00 0.00 81 1031.5
20220121082430 -9 158 0.0 7.0 0.00 0.00 0.00 81 1031.6
20220121081926 -9 171 0.0 7.0 0.00 0.00 0.00 81 1031.6
20220121081426 -9 178 0.0 7.0 0.00 0.00 0.00 81 1031.8
20220121080925 -9 176 0.0 7.0 0.00 0.00 0.00 81 1032.0
20220121080425 -9 166 0.0 8.0 0.00 0.00 0.00 81 1032.2
20220121075924 -9 165 0.0 8.0 0.00 0.00 0.00 81 1032.2
20220121075423 -9 178 0.0 8.0 0.00 0.00 0.00 81 1032.3
20220121074921 -9 178 0.0 6.0 0.00 0.00 0.00 81 1032.3
20220121074422 -9 175 0.0 6.0 0.00 0.00 0.00 81 1032.3
20220121073927 -9 180 0.0 7.0 0.00 0.00 0.00 81 1032.3
20220121073921 -9 181 0.0 7.0 0.00 0.00 0.00 81 1032.3
20220121073412 -9 180 0.0 7.0 0.00 0.00 0.00 81 1032.4
20220121072922 -9 170 0.0 7.0 0.00 0.00 0.00 81 1032.3
20220121072909 -9 169 0.0 7.0 0.00 0.00 0.00 81 1032.3
20220121072422 -9 175 0.0 8.0 0.00 0.00 0.00 81 1032.2
20220121072409 -9 173 0.0 8.0 0.00 0.00 0.00 81 1032.2
20220121071910 -9 189 0.0 8.0 0.00 0.00 0.00 81 1032.2
20220121071412 -9 184 0.0 10.0 0.00 0.00 0.00 81 1032.3
20220121070910 -9 184 0.0 10.0 0.00 0.00 0.00 81 1032.2
20220121070413 -9 186 0.0 8.0 0.00 0.00 0.00 81 1032.0
20220121065922 -9 176 0.0 6.0 0.00 0.00 0.00 81 1032.0
20220121065911 -9 178 0.0 6.0 0.00 0.00 0.00 81 1032.0
20220121065409 -9 153 0.0 9.0 0.00 0.00 0.00 81 1032.1
20220121064909 -9 150 0.0 9.0 0.00 0.00 0.00 81 1032.2
20220121064406 -9 163 0.0 8.0 0.00 0.00 0.00 81 1032.3
20220121063905 -9 165 0.0 8.0 0.00 0.00 0.00 81 1032.4
20220121063404 -9 159 0.0 6.0 0.00 0.00 0.00 81 1032.5
20220121062904 -9 178 0.0 0.0 0.00 0.00 0.00 81 1032.6
20220121062404 -9 177 0.0 0.0 0.00 0.00 0.00 81 1032.6
20220121061904 -9 169 0.0 0.0 0.00 0.00 0.00 81 1032.8
20220121061404 -9 163 0.0 0.0 0.00 0.00 0.00 81 1033.0
20220121060908 -9 163 0.0 0.0 0.00 0.00 0.00 81 1033.1
20220121060405 -9 159 0.0 0.0 0.00 0.00 0.00 81 1033.3
20220121055905 -9 159 0.0 0.0 0.00 0.00 0.00 81 1033.4
20220121055402 -9 159 0.0 0.0 0.00 0.00 0.00 81 1033.4
20220121054902 -9 159 0.0 0.0 0.00 0.00 0.00 81 1033.4
20220121054357 -9 159 0.0 1.0 0.00 0.00 0.00 80 1033.4
20220121053908 -9 159 0.0 7.0 0.00 0.00 0.00 80 1033.4
20220121053900 -8 159 0.0 7.0 0.00 0.00 0.00 80 1033.4
20220121053410 -8 159 0.0 7.0 0.00 0.00 0.00 80 1033.5
20220121053357 -8 159 0.0 7.0 0.00 0.00 0.00 80 1033.5
20220121052907 -8 155 0.0 4.0 0.00 0.00 0.00 80 1033.5
20220121052901 -8 155 0.0 4.0 0.00 0.00 0.00 80 1033.5
20220121052407 -8 155 0.0 4.0 0.00 0.00 0.00 80 1033.6
20220121052351 -8 155 0.0 4.0 0.00 0.00 0.00 80 1033.6
20220121051903 -8 155 0.0 3.0 0.00 0.00 0.00 80 1033.7
20220121051851 -8 155 0.0 3.0 0.00 0.00 0.00 80 1033.7
20220121051401 -8 167 0.0 2.0 0.00 0.00 0.00 80 1033.7
20220121051352 -8 167 0.0 2.0 0.00 0.00 0.00 80 1033.7
20220121050907 -8 165 0.0 5.0 0.00 0.00 0.00 80 1033.8
20220121050851 -8 166 0.0 5.0 0.00 0.00 0.00 80 1033.8
20220121050402 -8 182 0.0 5.0 0.00 0.00 0.00 80 1033.8
20220121050351 -8 182 0.0 5.0 0.00 0.00 0.00 80 1033.8
20220121045905 -8 182 0.0 8.0 0.00 0.00 0.00 80 1033.8
20220121045845 -8 182 0.0 8.0 0.00 0.00 0.00 80 1033.8